CAPE
42 29 45 44 42 39 51 46 23 25 28 32 35 39 59 69 73 22 0 0 0 0 6 0 14 4 27 164 212 43 90 22 20 20 35 2 0 0 0 0 0 0 0 0 172
30 38 25 29 34 40 33 26 19 19 28 36 45 50 51 54 30 6 0 60 33 14 16 32 13 23 102 110 241 202 44 16 6 46 26 14 0 0 0 0 0 0 0 206 83
20 22 28 28 39 45 41 22 21 26 39 50 48 44 53 56 8 0 33 10 8 8 21 23 17 23 34 83 182 126 39 56 6 47 39 8 0 0 0 0 0 0 18 117 315
16 18 23 41 38 22 22 28 33 38 57 70 45 48 70 57 1 0 42 1 0 0 0 11 13 24 11 16 118 93 54 30 72 26 16 4 1 0 0 0 0 0 122 276 315
16 44 44 39 32 19 31 48 35 40 68 60 41 40 51 30 2 0 0 0 0 0 0 3 18 17 11 10 81 150 68 51 104 35 23 43 30 19 0 0 0 0 145 441 432
19 21 19 26 39 45 33 30 25 14 34 20 18 48 53 12 0 0 0 0 0 0 0 0 12 21 23 15 33 43 143 93 96 78 45 70 73 4 5 0 0 0 83 426 450
39 55 45 31 23 25 26 25 7 4 15 9 23 53 36 0 0 0 0 0 0 0 0 0 0 0 48 32 20 100 127 124 49 75 47 65 92 9 11 73 55 31 92 301 387
10 24 24 27 29 27 21 3 0 0 1 0 0 3 3 0 7 1 2 1 0 0 0 0 0 0 5 56 157 52 132 124 11 45 58 83 43 61 28 115 120 178 194 200 322
26 23 19 21 15 17 7 0 0 0 0 0 0 8 0 0 0 6 20 19 8 5 0 3 21 8 12 63 136 127 9 11 35 55 34 64 10 42 39 114 130 177 187 177 194
22 17 13 17 15 13 0 0 0 0 0 0 0 2 0 0 0 3 0 8 31 29 13 18 13 17 14 53 13 39 25 1 3 10 80 49 26 11 3 64 141 207 182 176 205
12 19 6 12 14 4 0 0 0 0 0 0 0 0 0 0 0 0 0 0 49 30 16 14 21 9 30 47 9 38 33 1 2 14 113 53 3 40 12 10 50 185 193 127 110
15 22 11 6 11 0 0 2 16 30 9 0 0 0 0 0 0 0 0 0 0 12 38 44 15 3 6 21 35 81 50 49 32 77 123 50 56 53 57 30 13 6 180 118 78
25 21 8 1 0 0 0 0 8 15 9 0 0 0 0 0 0 0 0 2 7 13 12 30 4 3 8 16 7 81 42 53 45 63 94 65 24 35 64 26 18 0 0 136 58
18 12 4 0 0 0 0 0 0 16 2 0 0 0 0 0 0 0 0 3 15 16 15 16 0 0 7 5 20 14 6 44 60 102 93 64 20 28 41 30 2 0 0 21 116
6 5 2 0 0 0 0 0 0 0 0 0 0 0 0 0 0 2 14 3 14 11 3 4 0 0 0 8 3 33 7 37 48 61 50 8 84 0 0 15 0 0 0 0 2
5 1 0 0 0 0 0 0 0 0 0 0 0 0 0 0 0 12 26 14 24 25 25 15 16 37 0 11 11 3 13 14 27 50 93 9 1 0 8 0 0 0 0 1 0
2 0 0 0 0 0 0 0 0 0 0 0 0 0 0 0 0 6 40 17 36 26 18 13 20 8 32 11 50 34 82 66 29 106 38 2 35 1 0 0 5 3 0 1 4
0 0 0 0 0 0 0 0 0 0 0 1 4 0 0 0 0 0 14 10 16 10 15 21 17 0 1 29 35 77 50 2 3 16 22 0 34 0 0 0 0 24 31 9 0
0 0 0 0 0 0 0 0 0 0 1 6 3 0 0 4 5 7 2 13 76 15 19 24 4 0 0 22 47 48 93 0 38 1 32 11 0 0 0 0 0 0 9 0 0
0 0 0 0 0 0 6 0 0 0 0 6 14 8 5 6 3 7 1 17 33 33 41 45 46 0 0 40 48 47 8 61 42 51 36 2 0 0 0 0 0 0 0 0 0
0 0 0 0 0 0 1 0 0 0 0 13 17 16 14 16 7 10 3 1 10 2 1 20 24 32 4 19 31 39 57 51 24 23 10 19 9 0 0 0 0 0 0 0 0
0 0 0 0 0 1 3 0 0 0 0 4 22 24 16 0 7 12 12 5 1 0 4 21 43 31 6 0 5 11 5 34 47 1 2 0 0 0 0 0 0 0 0 0 0
0 0 0 0 0 4 0 0 0 0 0 1 1 22 17 0 4 4 5 0 0 0 16 27 27 38 36 64 27 25 18 27 0 4 1 3 1 0 0 0 0 0 0 0 0
0 0 0 2 2 2 1 0 0 0 0 0 0 11 0 0 2 5 6 0 0 0 12 13 15 10 20 15 61 39 36 36 14 75 2 0 0 0 0 0 0 0 0 0 0
0 2 2 0 1 2 6 0 0 0 0 0 0 0 0 1 0 1 3 3 0 0 0 12 11 11 3 0 26 10 8 3 1 0 0 0 0 0 0 0 0 0 0 0 0
0 0 4 4 0 1 0 0 0 0 0 0 0 0 0 0 0 5 11 2 4 0 1 4 10 6 6 0 0 1 3 17 1 0 0 0 0 0 0 0 0 0 0 0 0
0 1 3 0 0 0 0 0 0 2 0 0 0 0 0 0 0 0 0 1 4 4 5 8 17 7 11 1 31 52 7 4 0 0 0 0 0 0 0 0 0 0 0 0 0
CIN
-0 -0 -0 -0 -0 -0 -0 -0 -0 -0 -0 -0 -0 -0 -0 -0 -0 -0 -0 -0 -0 -0 -0 -0 -0 -3 -12 -0 -1 -26 -0 -0 -0 -0 -5 -0 -0 -0 -0 -0 -0 -0 -0 -0 -191
-0 -0 -0 -0 -0 -0 -0 -0 -0 -0 -0 -0 -0 -0 -0 -0 -0 -0 -0 -0 -0 -0 -0 -0 -0 -0 -0 -4 -0 -0 -7 -0 -0 -0 -7 -0 -0 -0 -0 -0 -0 -0 -0 -105 -175
-0 -0 -0 -0 -0 -0 -0 -0 -0 -0 -0 -0 -0 -0 -0 -0 -0 -0 -0 -8 -0 -5 -0 -0 -0 -0 -0 -1 -0 -0 -6 -0 -2 -0 -1 -5 -0 -0 -0 -0 -0 -0 -44 -154 -97
-0 -0 -0 -0 -0 -0 -0 -0 -0 -0 -0 -0 -0 -0 -0 -1 -0 -0 -2 -41 -0 -0 -0 -0 -0 -0 -0 -0 -3 -0 -3 -17 -0 -1 -4 -8 -23 -0 -0 -0 -0 -0 -162 -131 -99
-0 -0 -0 -0 -0 -0 -0 -0 -0 -0 -0 -0 -0 -0 -0 -0 -0 -0 -2 -0 -0 -0 -0 -6 -0 -0 -0 -26 -7 -0 -0 -25 -0 -16 -15 -2 -18 -6 -0 -0 -0 -0 -153 -99 -63
-0 -0 -0 -0 -0 -0 -0 -0 -0 -0 -0 -0 -0 -0 -0 -0 -0 -0 -0 -0 -0 -0 -0 -0 -0 -0 -0 -0 -12 -8 -0 -0 -1 -5 -2 -13 -2 -31 -20 -0 -0 -0 -147 -88 -64
-0 -0 -0 -0 -0 -0 -0 -0 -0 -0 -0 -0 -0 -0 -0 -0 -0 -0 -0 -0 -0 -0 -0 -0 -0 -0 -0 -0 -2 -2 -1 -0 -9 -8 -5 -9 -4 -21 -9 -64 -77 -96 -129 -69 -50
-0 -0 -0 -0 -0 -0 -0 -0 -0 -0 -0 -0 -0 -0 -0 -0 -25 -3 -18 -14 -0 -0 -0 -0 -0 -0 -0 -0 -0 -8 -0 -0 -2 -1 -8 -1 -9 -1 -9 -17 -38 -62 -90 -103 -50
-0 -0 -0 -0 -0 -0 -0 -0 -0 -0 -0 -0 -0 -0 -0 -0 -0 -26 -12 -3 -7 -9 -0 -0 -0 -0 -6 -0 -0 -0 -0 -0 -0 -0 -0 -1 -1 -2 -6 -12 -16 -52 -73 -105 -79
-0 -0 -0 -0 -0 -0 -0 -0 -0 -0 -0 -0 -0 -0 -1 -0 -7 -15 -0 -2 -0 -0 -0 -0 -0 -0 -0 -0 -1 -2 -2 -0 -0 -0 -0 -0 -0 -2 -2 -10 -4 -24 -65 -82 -77
-0 -0 -0 -0 -0 -0 -0 -0 -0 -0 -0 -0 -0 -0 -0 -0 -0 -0 -0 -0 -0 -0 -0 -0 -0 -0 -0 -0 -0 -0 -0 -0 -0 -0 -0 -0 -0 -0 -3 -25 -6 -26 -50 -79 -105
-0 -0 -0 -0 -0 -0 -0 -0 -0 -0 -0 -0 -0 -0 -0 -0 -0 -0 -0 -0 -0 -0 -0 -0 -0 -0 -0 -0 -0 -0 -0 -0 -0 -0 -0 -1 -0 -0 -0 -0 -19 -32 -26 -55 -75
-0 -0 -0 -0 -0 -0 -0 -0 -0 -0 -0 -0 -0 -0 -0 -0 -0 -0 -0 -4 -0 -0 -0 -0 -0 -0 -0 -0 -0 -5 -0 -4 -0 -0 -0 -1 -0 -0 -0 -3 -12 -0 -6 -13 -95
-0 -0 -0 -0 -0 -0 -0 -0 -0 -2 -0 -0 -0 -0 -0 -0 -0 -0 -0 -1 -0 -0 -0 -0 -0 -0 -0 -0 -0 -0 -0 -0 -0 -0 -0 -1 -0 -0 -0 -0 -20 -0 -0 -7 -17
-0 -0 -0 -0 -0 -0 -0 -0 -0 -0 -0 -0 -0 -0 -0 -0 -0 -0 -11 -0 -0 -0 -0 -0 -0 -0 -0 -0 -1 -0 -0 -1 -0 -0 -3 -1 -3 -0 -1 -2 -0 -0 -0 -0 -46
-0 -0 -0 -0 -0 -0 -0 -0 -0 -0 -0 -0 -0 -0 -0 -0 -0 -0 -2 -2 -0 -0 -0 -0 -0 -0 -0 -0 -0 -0 -0 -0 -0 -0 -0 -4 -1 -1 -0 -0 -0 -0 -0 -15 -0
-0 -0 -0 -0 -0 -0 -0 -0 -0 -0 -0 -0 -0 -0 -0 -0 -0 -0 -0 -0 -0 -0 -0 -1 -0 -1 -3 -0 -0 -0 -0 -0 -0 -1 -0 -2 -0 -0 -0 -0 -33 -38 -0 -20 -13
-0 -0 -0 -0 -0 -0 -0 -0 -0 -0 -0 -0 -0 -0 -0 -0 -0 -0 -0 -0 -0 -0 -0 -2 -0 -0 -1 -0 -0 -0 -0 -0 -0 -0 -0 -8 -0 -0 -0 -0 -0 -43 -66 -104 -0
-0 -0 -0 -0 -0 -0 -0 -0 -0 -0 -0 -0 -0 -0 -0 -0 -0 -0 -0 -0 -8 -0 -0 -0 -0 -0 -0 -2 -0 -1 -0 -1 -1 -5 -0 -2 -0 -0 -0 -0 -0 -0 -75 -32 -0
-0 -0 -0 -0 -0 -0 -1 -0 -0 -0 -0 -0 -0 -0 -0 -0 -0 -0 -0 -0 -0 -0 -0 -18 -0 -0 -1 -0 -1 -2 -0 -0 -0 -1 -0 -0 -0 -0 -0 -0 -0 -0 -0 -0 -0
-0 -0 -0 -0 -0 -0 -0 -0 -0 -0 -0 -0 -0 -0 -0 -0 -0 -0 -0 -1 -3 -0 -0 -0 -0 -0 -0 -0 -0 -0 -0 -7 -4 -0 -0 -0 -0 -0 -0 -0 -0 -0 -0 -0 -0
-0 -0 -0 -0 -0 -0 -0 -0 -0 -0 -0 -0 -0 -0 -0 -0 -0 -0 -0 -0 -0 -0 -0 -0 -19 -5 -0 -0 -2 -1 -0 -1 -0 -0 -4 -0 -0 -0 -0 -0 -0 -0 -0 -0 -0
-0 -0 -0 -0 -0 -0 -0 -0 -0 -0 -0 -0 -0 -0 -0 -0 -0 -0 -0 -0 -0 -0 -0 -0 -0 -8 -0 -0 -2 -0 -0 -1 -10 -49 -0 -0 -0 -0 -0 -0 -0 -0 -0 -0 -0
-0 -0 -0 -0 -0 -0 -0 -0 -0 -0 -0 -0 -0 -0 -0 -0 -0 -0 -0 -0 -0 -0 -0 -0 -0 -0 -0 -6 -0 -13 -0 -1 -5 -0 -0 -0 -0 -0 -0 -0 -0 -0 -0 -0 -0
-0 -0 -0 -0 -0 -0 -0 -0 -0 -0 -0 -0 -0 -0 -0 -0 -0 -0 -0 -0 -0 -0 -0 -0 -0 -0 -0 -0 -0 -31 -0 -0 -0 -2 -0 -0 -0 -0 -0 -0 -0 -0 -0 -0 -0
-0 -0 -0 -0 -0 -0 -0 -0 -0 -0 -0 -0 -0 -0 -0 -0 -0 -0 -0 -0 -0 -0 -0 -0 -0 -0 -0 -0 -0 -0 -0 -0 -4 -0 -0 -0 -0 -0 -0 -0 -0 -0 -0 -0 -0
-0 -0 -0 -0 -0 -0 -0 -0 -0 -0 -0 -0 -0 -0 -0 -0 -0 -0 -0 -0 -0 -0 -0 -0 -0 -0 -0 -2 -0 -0 -1 -0 -0 -0 -0 -0 -0 -0 -0 -0 -0 -0 -0 -0 -0
Wind_Speed
17 17 18 18 18 17 15 17 18 18 19 19 19 19 19 19 18 15 19 16 18 16 16 16 8 7 6 9 6 4 6 12 26 19 11 9 14 9 3 6 7 8 3 3 17
18 17 19 18 17 16 17 18 19 20 19 19 20 19 18 18 16 19 13 15 17 19 16 13 11 8 13 15 11 6 9 27 18 15 9 8 14 16 9 6 8 9 3 12 16
18 19 16 18 18 18 18 19 20 20 21 20 19 19 18 17 15 9 6 23 17 6 15 11 12 9 15 16 22 16 11 20 14 16 16 6 11 7 13 12 16 16 15 16 16
20 18 19 17 17 19 20 20 20 22 22 21 20 18 17 10 9 2 7 23 14 12 5 13 14 14 9 18 21 18 15 17 21 14 14 10 4 9 15 10 14 10 17 19 21
18 19 20 20 19 20 21 23 23 24 23 22 21 19 12 9 19 23 23 8 6 11 10 4 20 19 15 17 21 24 22 14 13 7 9 14 12 9 12 6 4 11 18 20 16
20 18 19 19 20 21 22 23 26 25 23 22 20 17 14 18 10 12 8 4 5 8 9 9 6 20 13 18 17 15 20 16 18 18 13 10 10 6 7 2 6 14 19 21 17
20 20 21 21 21 22 23 24 26 25 22 19 16 10 8 16 7 13 11 13 12 8 9 6 3 8 15 13 21 19 10 21 18 13 8 12 11 18 8 4 7 13 16 19 17
20 21 21 22 22 22 23 25 25 23 18 12 10 6 7 3 9 8 6 8 5 9 12 5 7 8 5 11 6 21 16 12 16 20 9 12 23 20 12 10 9 11 14 17 19
20 21 21 21 22 22 23 25 23 17 8 13 4 3 4 4 4 6 3 4 5 2 10 9 8 3 7 7 14 15 17 23 21 18 15 13 4 18 18 12 10 11 13 16 15
18 20 21 21 22 22 21 24 14 6 13 1 2 4 3 4 7 10 9 6 6 1 7 10 4 2 6 12 13 20 19 19 22 22 23 19 15 3 12 15 13 11 12 15 14
20 19 20 21 21 19 13 5 6 1 11 7 14 7 11 7 13 6 6 7 7 7 8 12 8 9 11 21 18 19 17 20 15 15 15 25 23 19 9 13 11 10 11 13 13
19 21 20 21 20 10 5 7 7 6 11 10 12 9 11 5 7 10 3 6 8 13 6 6 15 14 11 18 14 23 21 18 15 15 11 14 22 21 16 17 15 11 13 14 12
20 19 19 20 12 2 3 6 8 4 5 8 5 6 4 3 10 8 5 2 7 8 12 14 10 15 15 9 12 20 24 20 15 16 14 7 12 16 18 13 16 14 14 13 16
19 18 18 17 2 4 2 9 8 4 3 7 3 0 3 15 6 3 5 3 3 7 8 10 17 15 16 19 10 14 29 23 19 13 7 12 9 16 19 20 15 17 13 17 20
18 19 16 4 6 5 8 10 4 4 3 14 4 3 15 4 10 3 2 3 9 7 5 5 7 13 19 20 16 6 19 19 14 16 3 7 3 15 19 20 23 22 25 21 18
21 18 15 1 2 3 10 5 4 3 4 7 7 16 15 5 6 3 1 1 3 6 10 15 1 6 17 10 16 9 11 14 11 5 6 11 13 3 14 29 24 22 26 27 21
21 18 6 1 5 11 6 3 2 3 7 10 11 14 15 11 8 6 6 4 4 5 6 8 13 9 9 16 9 13 6 6 6 6 6 15 10 12 14 21 22 24 22 24 21
20 9 3 1 8 6 3 2 3 2 6 11 13 17 6 14 11 15 9 7 7 2 3 6 7 16 14 16 8 19 8 3 7 8 8 3 10 12 20 10 13 19 22 18 18
12 2 1 5 7 3 3 3 3 4 8 12 17 7 5 8 10 9 11 6 4 7 5 5 7 6 11 10 17 14 16 11 4 3 11 8 9 8 7 11 12 17 19 25 26
3 3 3 11 5 2 2 2 3 2 7 6 7 5 10 14 11 12 5 2 7 4 12 3 5 7 12 14 17 9 15 10 5 5 8 6 6 6 10 15 11 17 20 19 21
3 3 3 11 3 3 3 3 4 4 6 4 6 7 7 13 14 8 6 6 6 16 15 3 5 3 12 16 17 7 9 5 4 8 2 3 4 3 3 5 12 12 13 17 19
2 3 7 7 3 2 3 6 6 6 4 4 7 8 7 14 8 6 7 7 14 17 10 5 4 4 17 1 15 14 6 7 9 6 6 4 2 2 4 2 2 5 8 10 12
3 2 3 5 5 5 8 5 4 6 8 5 6 6 7 9 7 8 10 8 12 15 5 8 3 3 11 2 10 17 12 3 1 2 2 6 4 3 1 3 2 4 5 7 9
2 4 3 4 3 5 7 5 9 8 6 6 7 6 13 8 4 11 12 11 25 12 17 14 3 4 4 5 11 11 13 10 3 5 7 2 8 5 5 5 3 4 3 5 8
4 3 1 5 3 5 6 4 9 11 4 6 3 10 12 7 9 4 11 21 10 4 16 8 4 4 5 5 16 16 16 10 3 11 10 8 8 6 6 5 5 4 5 6 8
2 3 1 3 4 4 2 1 6 9 5 5 8 17 13 8 10 20 18 14 10 10 12 7 5 5 4 8 16 12 15 15 9 2 8 9 6 3 5 6 8 7 7 6 7
2 1 2 2 2 4 2 4 6 12 7 10 14 16 13 8 18 23 22 19 18 14 6 6 7 6 5 2 16 9 5 2 10 9 2 12 8 4 10 12 12 10 8 5 5
Wind_Direction
342 348 350 346 342 334 334 331 324 325 321 317 316 313 314 317 310 291 285 273 255 248 257 259 269 241 245 235 222 147 240 214 223 217 221 191 204 151 130 212 210 190 270 344 133
353 347 340 335 330 328 332 330 326 321 317 315 317 315 315 315 306 291 291 12 244 245 251 231 244 229 223 217 208 220 234 225 227 224 227 205 213 191 184 180 217 197 160 137 148
350 341 341 336 339 334 328 328 322 316 314 311 313 314 320 322 306 265 123 16 7 327 248 255 238 231 223 227 213 223 220 213 226 230 220 224 207 189 205 221 230 205 170 165 160
343 335 334 331 332 331 327 321 317 313 312 313 316 314 305 299 284 353 280 356 349 353 287 228 226 214 220 217 218 225 232 231 217 221 202 200 193 195 201 195 221 218 166 165 171
336 335 336 343 335 328 323 321 317 314 315 315 309 300 294 260 248 269 291 337 332 2 347 332 214 212 217 219 227 222 233 217 218 222 205 203 209 229 214 204 197 172 170 170 174
337 337 333 328 328 326 326 322 317 314 315 311 301 294 275 272 292 284 276 217 272 309 298 295 301 219 233 235 224 222 227 222 225 227 207 192 206 208 206 215 194 177 179 175 167
333 338 342 339 332 326 324 321 315 315 316 306 300 287 261 255 275 292 279 274 292 259 260 278 288 283 228 220 229 237 226 227 225 233 235 231 236 221 180 168 188 192 176 177 170
344 339 338 335 332 329 327 320 315 319 312 326 315 283 262 282 310 302 307 289 268 245 223 263 145 290 246 238 206 211 226 226 225 208 207 227 224 217 196 191 195 189 171 176 181
346 342 338 338 336 335 329 317 316 322 333 322 225 232 268 309 301 345 264 271 306 198 199 170 185 218 205 224 218 196 209 217 212 203 193 216 216 237 186 196 199 188 178 178 176
343 345 342 338 337 336 330 317 308 321 345 204 131 246 227 337 310 303 268 266 264 166 172 205 183 219 252 185 209 203 215 209 217 204 202 192 229 230 174 209 206 183 182 185 177
340 339 341 339 339 342 337 329 356 331 1 299 303 285 297 306 283 253 306 226 241 245 239 200 215 215 226 212 232 225 217 218 208 199 197 211 211 216 189 202 198 181 188 192 182
336 338 341 338 338 352 355 35 29 308 308 314 276 261 271 290 295 318 210 206 215 237 238 216 231 227 237 241 220 245 229 218 200 200 206 209 221 225 218 223 209 188 201 199 177
339 339 340 336 340 8 3 40 318 274 277 295 280 280 302 245 311 299 200 225 245 243 229 251 260 207 220 238 233 236 221 205 200 190 205 206 237 232 212 221 220 199 228 203 189
344 342 341 338 238 348 318 340 326 235 293 0 344 106 245 314 261 243 240 275 233 261 245 244 242 247 227 222 200 261 221 221 205 186 191 208 237 211 213 210 213 203 204 206 197
342 340 340 18 316 312 337 330 312 232 301 344 322 332 320 274 319 136 30 259 234 216 217 213 239 229 229 230 190 278 196 207 196 211 215 170 217 238 202 211 210 200 196 208 205
339 338 341 286 271 317 333 316 223 250 327 339 320 328 337 332 313 292 328 269 305 226 227 264 300 260 236 220 199 218 173 184 195 216 232 195 209 248 191 207 210 202 203 203 209
341 331 326 285 346 326 323 246 285 21 347 327 330 328 329 322 332 322 310 264 232 227 211 229 240 235 241 210 215 185 224 139 162 201 241 212 208 241 210 215 213 198 196 202 200
334 342 11 51 345 330 280 257 334 12 314 318 311 311 319 356 337 331 334 341 198 208 263 242 210 198 201 213 189 190 219 144 176 187 197 162 214 234 223 209 226 209 194 184 184
333 357 9 22 340 314 285 45 340 347 332 317 313 328 4 349 333 326 328 339 333 214 240 231 246 187 197 185 194 186 207 211 18 209 206 186 232 271 220 212 198 207 191 188 181
355 341 7 341 329 270 52 23 293 267 322 296 315 340 335 346 336 343 303 37 344 346 284 245 268 204 184 188 197 211 176 180 199 240 192 191 237 216 182 189 179 184 189 194 195
31 21 17 344 283 35 50 331 301 306 317 292 309 298 318 341 322 313 301 331 18 340 327 272 234 178 162 201 185 152 173 200 217 240 356 133 178 82 194 203 199 184 185 185 191
20 24 0 326 22 14 3 330 323 316 331 301 282 291 324 331 305 289 288 300 350 344 308 275 282 243 189 31 215 194 173 200 193 181 236 311 93 1 297 249 194 183 181 172 188
42 311 14 324 38 3 333 331 306 321 336 328 305 344 347 310 311 290 321 308 341 336 328 339 267 208 134 137 196 191 158 135 156 84 161 216 134 39 127 122 128 178 179 172 173
38 1 12 51 75 1 346 334 341 331 296 319 294 311 340 315 299 296 307 318 324 318 342 327 282 313 284 150 139 170 166 156 247 190 139 319 122 82 68 94 119 127 160 168 170
15 63 32 341 23 349 318 310 330 354 316 324 299 335 341 297 303 251 320 326 310 332 344 347 293 316 318 223 161 155 152 133 202 143 133 149 96 62 44 51 68 98 116 131 146
50 2 347 302 335 333 23 17 315 336 299 306 316 325 319 271 292 301 314 315 284 322 335 325 309 311 53 174 165 143 150 165 147 212 113 111 88 23 42 61 70 77 104 120 137
86 111 297 1 348 306 45 325 294 318 286 265 310 314 310 320 309 288 278 270 265 284 302 299 320 322 67 307 133 122 70 154 90 34 201 129 18 51 69 53 41 48 58 84 129